Wetbulb
67.59 68.19 68.04 68.12 68.22 67.42 67.31 67.34 67.53 68.79 69.54 70.33 70.87 71.84 71.55 72.58 73.29 74.60 74.43 75.02 74.21 73.27 74.18 74.26 77.19 76.44 76.44 76.46 76.35 76.34 75.20 75.83 75.67 74.30 74.60 73.60 74.22 75.61 76.33 76.46 75.91 75.72 75.75
66.30 67.13 67.82 67.98 68.08 67.68 67.33 67.65 68.00 67.94 68.87 70.97 72.36 73.14 73.06 73.17 73.78 74.20 74.65 75.36 74.45 73.54 75.13 76.44 76.56 77.30 76.18 76.40 76.29 76.57 74.93 75.72 75.88 73.81 72.66 69.84 71.53 73.79 74.57 75.73 76.00 76.51 76.61
65.42 66.82 67.34 67.81 68.56 68.12 67.85 67.76 68.39 68.85 69.23 70.37 72.24 72.71 72.69 73.25 72.48 73.26 73.97 74.57 74.61 74.01 74.88 75.49 76.21 76.85 76.80 75.32 76.15 76.48 75.66 73.85 75.78 75.17 72.68 69.54 68.31 71.83 73.77 73.68 74.98 75.82 75.91
66.12 67.11 67.55 67.81 68.59 69.26 70.06 69.21 69.22 69.62 69.77 71.46 71.90 72.50 70.92 70.29 71.91 73.25 74.62 74.66 75.23 74.88 75.38 76.21 76.10 76.66 76.21 75.88 75.38 76.63 76.27 77.03 73.91 75.59 75.09 74.69 73.99 70.32 69.44 73.71 74.71 75.47 74.58
66.22 66.34 67.24 68.39 69.33 70.07 70.25 70.73 70.99 70.88 71.27 71.67 73.19 72.19 71.72 71.99 73.34 73.34 74.08 74.77 75.17 75.84 75.45 76.43 76.57 76.62 76.00 76.43 76.21 75.49 77.51 77.87 76.63 76.66 74.95 75.35 74.96 74.52 72.85 70.37 72.53 74.69 75.83
66.28 67.20 67.79 68.39 66.92 70.08 70.39 70.66 71.13 71.47 72.17 72.28 72.42 72.66 72.65 72.42 71.82 72.75 72.82 73.12 73.42 73.59 75.26 76.08 76.68 77.07 76.79 76.62 76.40 75.95 76.47 77.68 76.78 77.26 75.91 74.85 73.66 72.99 72.45 71.16 72.32 71.58 74.77
66.12 66.61 67.09 67.66 68.06 68.82 69.74 70.41 70.96 71.09 72.09 71.99 72.15 72.29 72.76 73.25 72.98 73.52 72.78 74.09 73.20 73.48 74.62 75.92 76.41 76.06 76.87 76.79 76.85 76.69 76.68 77.08 77.12 76.46 75.58 76.73 75.35 75.67 74.24 72.79 72.15 72.15 74.37
66.32 66.72 67.51 68.08 68.84 69.42 70.07 70.52 70.69 71.10 71.73 71.87 72.43 73.11 73.32 72.52 72.59 73.25 72.98 73.37 73.28 74.04 75.65 75.18 76.21 76.71 76.82 76.57 77.06 76.20 76.17 76.88 76.33 76.26 76.49 77.54 75.94 76.17 75.44 73.33 73.42 70.92 72.02
66.03 66.67 67.76 68.89 69.26 69.59 70.34 70.75 71.05 71.12 71.08 71.55 72.43 72.88 73.12 73.10 72.73 73.69 73.80 73.17 74.80 74.30 75.26 75.68 76.18 76.43 76.80 76.79 76.86 75.75 76.13 76.91 76.82 76.76 76.58 77.90 76.04 76.46 76.28 75.78 74.33 74.19 68.88
66.21 66.94 67.82 68.71 69.73 70.13 71.06 71.55 71.74 71.27 71.13 71.80 72.15 72.40 73.00 73.57 73.55 74.01 73.72 73.76 74.24 74.49 74.52 74.86 75.51 76.10 76.68 76.70 76.70 76.39 76.35 76.75 76.10 76.77 76.45 77.14 76.71 76.32 76.08 75.82 75.57 74.47 74.65
66.27 67.28 67.94 68.86 69.90 70.50 70.75 71.04 71.66 71.01 71.27 71.59 72.10 72.31 72.39 73.00 73.60 73.47 73.91 74.14 74.38 74.71 74.61 74.64 74.46 75.42 75.67 76.43 76.46 76.37 76.19 75.71 76.08 76.69 76.20 76.17 77.23 76.43 77.24 77.46 78.16 76.49 73.95
67.03 67.42 67.94 68.69 69.32 69.72 70.25 70.72 71.60 71.14 71.97 72.68 72.94 72.61 73.11 72.97 72.58 72.85 73.39 74.42 74.36 75.04 74.92 75.06 74.79 74.90 75.19 75.75 76.17 75.61 75.41 75.65 75.28 75.30 75.79 75.40 74.78 76.37 77.21 75.46 77.03 76.18 76.09
66.58 67.25 68.00 68.22 68.99 69.53 70.34 70.94 71.75 71.57 72.11 72.37 72.79 73.29 73.37 73.43 73.57 74.01 74.43 74.47 74.42 74.60 74.70 75.31 75.19 75.21 75.08 75.06 75.30 75.36 75.51 75.15 75.32 75.29 75.54 75.62 75.70 75.15 74.88 76.90 76.86 77.30 75.92
66.32 66.94 67.44 68.33 69.07 69.61 69.90 70.72 71.35 72.38 72.12 71.79 71.78 71.75 71.90 72.69 72.79 73.72 74.58 74.79 75.21 74.78 74.71 74.98 75.17 75.03 74.93 74.85 74.65 74.64 74.95 74.87 74.71 75.51 76.01 75.96 76.06 76.03 76.35 76.40 76.53 76.61 76.36
66.03 67.24 67.59 67.89 68.50 69.05 69.81 70.57 71.16 71.73 72.07 71.61 71.34 71.22 71.93 71.95 72.23 73.02 73.86 74.35 74.72 74.68 75.10 75.08 75.07 75.15 74.49 73.76 73.72 73.64 73.82 73.68 73.64 75.13 76.12 76.35 75.33 72.08 72.70 75.27 76.82 76.41 75.61
66.25 67.16 68.24 68.26 67.91 68.41 69.12 69.65 70.42 71.29 71.24 70.55 70.60 70.70 70.40 70.52 70.84 71.29 71.44 72.42 73.58 74.28 74.84 74.79 74.77 74.52 73.83 67.89 66.79 71.17 73.61 74.05 73.72 73.24 74.19 76.18 73.39 72.75 68.48 67.97 68.32 72.19 76.34
67.14 67.84 68.30 68.73 69.06 69.03 69.57 69.43 70.01 70.70 70.22 70.32 70.40 70.70 70.72 70.57 70.67 71.16 70.91 71.03 71.56 72.81 73.96 74.58 74.87 74.75 74.93 66.03 65.33 66.90 73.21 73.83 74.37 74.46 74.18 74.34 74.62 73.60 76.09 69.52 66.43 66.74 66.24
67.99 68.71 69.34 69.93 70.92 70.90 70.69 70.70 69.96 70.02 69.68 69.65 69.66 70.06 70.41 70.44 70.89 70.65 70.25 68.94 70.72 71.17 72.15 73.88 74.59 74.76 74.84 65.84 63.83 65.95 73.46 74.30 74.82 75.19 75.64 75.84 75.95 75.90 75.63 75.93 75.22 75.22 75.22
69.30 69.83 70.39 71.01 70.70 71.00 71.39 71.33 71.04 70.81 70.85 70.86 71.12 71.12 71.29 70.59 70.41 69.56 70.68 70.77 70.46 70.40 70.80 72.02 73.64 74.29 74.99 63.22 62.92 66.26 73.21 73.64 74.55 75.31 75.86 75.86 75.97 70.15 65.74 74.66 74.44 74.76 74.52
69.66 69.71 70.20 70.43 70.61 70.87 71.28 70.57 70.42 70.55 70.60 71.44 71.93 71.94 71.37 70.49 69.89 70.03 69.36 69.90 70.20 70.35 71.73 72.03 72.40 69.12 72.93 64.26 61.14 64.47 73.07 72.85 73.38 74.61 75.08 66.98 71.08 65.44 62.15 71.48 74.36 73.19 73.93
69.02 70.24 69.89 69.54 70.32 70.52 70.61 69.68 70.15 70.18 71.24 71.70 70.81 70.81 70.75 70.04 69.80 69.74 69.27 68.36 69.13 69.13 70.00 70.84 72.60 72.38 71.17 70.94 59.15 58.78 70.87 71.67 72.38 72.95 73.07 74.19 61.86 59.15 57.88 59.33 72.03 71.91 73.43
68.80 69.55 69.08 69.35 69.82 70.38 70.20 69.30 69.33 70.31 71.47 71.24 70.60 69.81 69.22 68.09 67.83 67.60 66.12 66.67 67.36 66.62 68.91 69.35 69.47 69.84 68.51 60.05 58.76 57.31 57.84 61.31 68.46 69.37 71.14 70.99 58.06 55.88 55.16 57.57 60.03 59.51 60.87
68.77 69.69 69.39 69.09 69.58 70.33 70.30 68.94 69.46 70.27 70.27 70.59 69.78 68.75 66.74 65.81 65.97 66.23 65.96 65.93 65.81 65.15 65.32 66.71 66.98 66.24 64.82 63.94 57.69 57.15 57.13 58.20 61.72 66.10 64.13 58.20 55.52 54.59 57.65 56.17 57.07 57.49 63.30
68.78 69.33 69.15 68.46 68.56 69.69 70.10 69.46 69.59 70.30 69.67 68.79 68.56 67.33 65.54 64.32 64.05 62.47 61.16 61.97 62.68 63.52 64.40 64.58 64.51 63.41 63.34 61.43 60.46 61.04 62.22 59.98 62.25 62.50 64.55 62.66 59.16 57.61 61.01 61.63 62.50 62.64 63.44
69.18 69.45 68.71 67.86 67.54 68.67 68.56 68.62 68.93 68.37 67.65 67.89 67.03 65.06 63.58 63.62 61.59 58.89 57.62 58.53 55.41 54.74 60.12 59.65 59.83 59.28 59.72 56.79 48.88 50.66 58.23 59.11 57.99 55.60 63.88 64.18 64.80 64.05 63.80 64.18 64.78 62.80 62.96
67.27 67.43 67.37 67.16 66.59 67.50 67.34 67.77 67.98 67.96 67.19 66.78 64.00 61.82 61.34 61.44 61.68 61.30 58.85 48.23 47.56 45.82 45.17 45.01 54.40 55.77 48.61 45.50 44.26 43.74 45.37 48.21 50.99 61.79 61.34 60.48 60.37 59.46 59.98 60.48 60.96 61.37 60.69
MSLP
1012.30 1013.14 1013.84 1014.42 1014.85 1015.56 1016.20 1016.59 1016.93 1017.09 1017.31 1017.45 1017.37 1017.40 1017.43 1017.51 1017.46 1017.47 1017.68 1017.88 1018.03 1018.31 1018.43 1018.56 1018.57 1018.57 1018.46 1018.60 1018.57 1018.37 1018.29 1017.96 1018.15 1017.68 1017.33 1017.47 1017.62 1017.65 1017.53 1017.54 1017.65 1018.02 1018.21
1011.93 1012.61 1013.24 1013.88 1014.25 1014.92 1015.56 1016.12 1016.47 1016.95 1017.28 1017.27 1017.31 1017.28 1017.24 1017.35 1017.41 1017.56 1017.66 1017.74 1017.81 1018.06 1018.27 1018.44 1018.45 1018.51 1018.57 1018.66 1018.64 1018.55 1018.24 1018.13 1018.30 1017.78 1017.58 1017.12 1017.35 1017.34 1017.32 1017.60 1017.80 1017.96 1018.05
1010.92 1011.71 1012.48 1013.03 1013.64 1014.26 1014.93 1015.38 1016.05 1016.51 1016.86 1017.26 1017.38 1017.46 1017.55 1017.45 1017.52 1017.58 1017.50 1017.45 1017.65 1017.80 1018.10 1018.29 1018.37 1018.40 1018.57 1018.63 1018.72 1018.56 1018.46 1018.17 1018.18 1018.36 1017.79 1017.19 1016.97 1017.22 1017.61 1017.72 1017.90 1018.09 1018.09
1010.36 1010.91 1011.69 1012.34 1012.82 1013.40 1014.21 1014.97 1015.44 1015.99 1016.41 1016.91 1017.16 1017.25 1017.12 1016.87 1016.84 1016.98 1017.31 1017.38 1017.50 1017.66 1017.85 1017.95 1018.15 1018.25 1018.39 1018.69 1018.67 1018.57 1018.44 1018.58 1018.14 1018.30 1018.08 1018.04 1017.83 1017.19 1017.15 1017.52 1017.70 1017.96 1017.85
1009.35 1009.95 1010.72 1011.35 1011.97 1012.86 1013.46 1014.24 1014.98 1015.56 1015.91 1016.31 1016.66 1016.88 1017.06 1016.96 1017.00 1017.16 1017.27 1017.42 1017.46 1017.52 1017.60 1017.73 1017.85 1018.00 1017.99 1018.33 1018.51 1018.57 1018.51 1018.68 1018.47 1018.31 1017.79 1017.99 1017.97 1017.92 1017.51 1017.23 1017.22 1017.63 1017.81
1008.55 1009.36 1010.18 1011.10 1011.78 1012.20 1012.91 1013.54 1014.31 1014.72 1015.36 1015.81 1016.15 1016.43 1016.63 1016.80 1016.89 1016.91 1016.97 1017.17 1017.34 1017.44 1017.48 1017.53 1017.61 1017.69 1017.69 1017.99 1018.13 1018.37 1018.39 1018.59 1018.49 1018.34 1017.95 1017.89 1017.69 1017.50 1017.54 1017.36 1017.34 1017.36 1017.54
1007.89 1008.80 1009.60 1010.38 1011.03 1011.60 1012.15 1012.81 1013.53 1014.01 1014.55 1015.15 1015.54 1015.95 1016.20 1016.54 1016.77 1016.75 1016.65 1016.85 1016.93 1017.08 1017.31 1017.37 1017.37 1017.35 1017.40 1017.55 1017.66 1018.04 1018.09 1018.32 1018.32 1018.19 1017.85 1017.92 1017.72 1017.76 1017.74 1017.49 1017.30 1017.47 1017.40
1007.27 1008.02 1008.75 1009.57 1010.14 1010.78 1011.50 1012.16 1012.76 1013.33 1013.80 1014.35 1014.81 1015.32 1015.83 1016.05 1016.26 1016.51 1016.56 1016.62 1016.61 1016.65 1016.77 1017.03 1017.12 1017.13 1017.10 1017.14 1017.28 1017.57 1017.79 1018.02 1017.99 1017.93 1017.97 1017.92 1017.67 1017.69 1017.66 1017.53 1017.54 1017.49 1017.33
1006.62 1007.42 1008.22 1008.86 1009.53 1010.16 1010.96 1011.50 1012.19 1012.83 1013.27 1013.62 1014.30 1014.85 1015.29 1015.56 1015.79 1016.14 1016.28 1016.35 1016.62 1016.60 1016.63 1016.77 1016.97 1016.85 1016.84 1016.86 1017.02 1017.17 1017.49 1017.72 1017.74 1017.66 1017.70 1017.79 1017.44 1017.50 1017.42 1017.52 1017.55 1017.46 1017.24
1006.43 1007.09 1007.78 1008.33 1008.98 1009.63 1010.45 1011.17 1011.55 1012.13 1012.63 1013.10 1013.48 1013.89 1014.48 1014.90 1015.25 1015.62 1015.95 1015.97 1016.18 1016.43 1016.69 1016.80 1016.82 1016.74 1016.67 1016.63 1016.76 1016.90 1017.21 1017.40 1017.40 1017.53 1017.61 1017.66 1017.40 1017.29 1017.17 1017.21 1017.21 1017.21 1017.46
1005.93 1006.61 1007.32 1008.14 1008.82 1009.55 1010.13 1010.63 1011.20 1011.77 1012.22 1012.69 1013.08 1013.40 1013.81 1014.33 1014.82 1015.10 1015.37 1015.60 1015.73 1015.97 1016.22 1016.34 1016.60 1016.42 1016.28 1016.34 1016.58 1016.60 1016.75 1016.89 1017.08 1017.29 1017.36 1017.35 1017.43 1017.08 1017.04 1016.95 1017.04 1017.14 1017.17
1005.95 1006.54 1007.21 1007.86 1008.61 1009.15 1009.75 1010.34 1010.81 1011.36 1011.64 1012.17 1012.75 1013.01 1013.43 1013.83 1014.13 1014.50 1014.64 1015.02 1015.35 1015.50 1015.44 1015.74 1016.04 1016.15 1016.07 1016.21 1016.28 1016.28 1016.20 1016.41 1016.55 1016.66 1016.86 1016.86 1016.84 1017.01 1016.95 1016.73 1016.85 1016.72 1017.09
1005.80 1006.53 1007.20 1007.84 1008.31 1008.86 1009.29 1009.89 1010.39 1010.79 1011.31 1011.90 1012.21 1012.61 1013.01 1013.37 1013.54 1013.82 1014.08 1014.37 1014.63 1014.83 1014.96 1015.16 1015.35 1015.57 1015.64 1015.82 1015.97 1016.02 1016.01 1016.04 1016.12 1016.19 1016.35 1016.33 1016.60 1016.61 1016.49 1016.65 1016.73 1016.73 1016.76
1005.39 1006.13 1007.03 1007.35 1007.93 1008.63 1009.07 1009.75 1010.20 1010.58 1011.03 1011.53 1011.92 1012.25 1012.57 1012.96 1013.14 1013.27 1013.51 1013.75 1014.02 1014.21 1014.34 1014.59 1014.78 1015.01 1015.14 1015.33 1015.53 1015.66 1015.73 1015.68 1015.70 1015.81 1015.86 1015.84 1015.97 1016.10 1016.20 1016.38 1016.40 1016.47 1016.44
1005.07 1005.63 1006.37 1007.09 1007.76 1008.33 1008.90 1009.53 1010.11 1010.64 1011.01 1011.28 1011.69 1012.12 1012.50 1012.77 1012.99 1013.20 1013.30 1013.35 1013.52 1013.72 1013.99 1014.04 1014.25 1014.58 1014.73 1014.81 1015.18 1015.48 1015.34 1015.31 1015.29 1015.31 1015.40 1015.43 1015.47 1015.59 1015.81 1015.90 1015.74 1015.97 1016.07
1004.69 1005.42 1006.20 1006.89 1007.53 1007.97 1008.50 1009.14 1009.77 1010.27 1010.84 1011.14 1011.45 1011.89 1012.21 1012.51 1012.76 1012.94 1013.17 1013.33 1013.32 1013.35 1013.54 1013.53 1013.45 1013.84 1014.05 1014.13 1014.49 1014.81 1014.97 1014.89 1014.80 1014.74 1014.82 1014.93 1015.12 1015.20 1015.30 1015.53 1015.57 1015.76 1015.61
1004.36 1004.97 1005.66 1006.23 1006.98 1007.54 1008.08 1008.74 1009.43 1010.11 1010.56 1011.02 1011.37 1011.62 1011.92 1012.13 1012.36 1012.72 1012.97 1013.02 1013.02 1013.03 1012.94 1012.97 1012.92 1013.16 1013.46 1013.70 1014.03 1014.27 1014.31 1014.24 1014.13 1014.15 1014.20 1014.22 1014.16 1014.63 1014.75 1014.96 1015.24 1015.39 1015.36
1003.97 1004.61 1005.12 1006.10 1006.87 1007.63 1008.25 1008.95 1009.51 1010.02 1010.58 1010.90 1011.14 1011.35 1011.63 1011.85 1012.09 1012.42 1012.59 1012.83 1012.72 1012.63 1012.53 1012.40 1012.31 1012.60 1012.81 1013.17 1013.48 1013.61 1013.72 1013.58 1013.52 1013.58 1013.62 1013.65 1013.65 1013.83 1014.06 1014.24 1014.31 1014.35 1014.46
1003.12 1004.12 1004.99 1006.00 1006.98 1007.59 1008.27 1008.79 1009.35 1009.81 1010.28 1010.52 1010.86 1011.04 1011.35 1011.56 1011.75 1011.92 1012.05 1012.23 1012.28 1012.22 1012.16 1012.04 1011.99 1012.17 1012.35 1012.66 1012.92 1013.28 1013.16 1012.85 1012.75 1012.76 1012.82 1012.89 1012.95 1013.12 1013.44 1013.66 1013.47 1013.49 1013.53
1003.18 1003.66 1004.92 1006.14 1006.77 1007.64 1008.22 1008.60 1009.05 1009.54 1009.86 1010.27 1010.57 1010.72 1011.01 1011.26 1011.52 1011.76 1011.87 1011.97 1011.96 1011.87 1011.72 1011.70 1011.82 1011.90 1012.07 1012.28 1012.54 1012.77 1012.49 1012.27 1012.07 1012.05 1012.09 1012.29 1012.55 1012.62 1012.89 1013.19 1012.86 1012.80 1012.75
1003.13 1004.22 1004.63 1005.74 1006.65 1007.60 1007.91 1008.22 1008.88 1009.45 1009.88 1010.31 1010.65 1010.97 1011.29 1011.44 1011.59 1011.72 1011.90 1011.99 1011.82 1011.82 1011.53 1011.45 1011.51 1011.71 1011.95 1012.20 1012.65 1012.84 1012.72 1012.55 1012.14 1011.70 1011.55 1011.58 1012.03 1012.35 1012.54 1012.85 1012.75 1012.22 1012.28
1002.53 1003.94 1004.35 1005.47 1006.71 1007.58 1008.04 1008.28 1008.81 1009.50 1009.93 1010.35 1010.76 1011.16 1011.48 1011.62 1011.81 1011.94 1012.10 1012.02 1011.95 1011.77 1011.54 1011.47 1011.57 1011.85 1012.26 1012.66 1013.03 1013.16 1013.15 1012.95 1012.69 1012.34 1012.14 1012.16 1012.33 1012.47 1012.54 1012.54 1012.28 1012.34 1012.57
1002.65 1003.36 1004.43 1005.38 1006.70 1007.57 1007.91 1008.14 1008.96 1009.52 1009.96 1010.39 1010.78 1011.20 1011.69 1012.01 1012.15 1012.04 1012.05 1012.03 1012.17 1012.07 1011.86 1011.61 1011.74 1012.32 1012.62 1012.88 1013.24 1013.28 1013.45 1013.00 1012.91 1012.67 1012.48 1012.53 1012.51 1012.39 1012.15 1012.05 1012.00 1012.05 1012.13
1002.65 1003.32 1004.54 1005.42 1006.60 1007.60 1007.93 1008.04 1008.88 1009.48 1009.95 1010.37 1010.88 1011.39 1011.73 1012.01 1012.18 1012.46 1012.67 1012.60 1012.66 1012.50 1012.28 1012.23 1012.36 1012.80 1012.95 1013.22 1013.46 1013.44 1013.16 1012.99 1012.58 1012.36 1012.22 1012.13 1012.15 1011.91 1011.73 1011.52 1011.79 1011.68 1011.45
1003.26 1004.06 1004.88 1005.91 1006.83 1007.76 1008.45 1008.54 1009.00 1009.46 1009.93 1010.42 1011.10 1011.57 1011.96 1012.16 1012.46 1012.99 1013.27 1013.20 1013.55 1013.60 1013.30 1013.27 1013.24 1013.30 1013.58 1014.03 1013.99 1013.84 1013.49 1013.14 1012.84 1012.51 1012.04 1011.94 1011.72 1011.49 1011.23 1011.14 1011.16 1011.04 1010.88
1004.21 1004.54 1005.16 1006.14 1007.14 1007.81 1008.47 1008.72 1009.29 1009.63 1009.93 1010.55 1011.39 1012.03 1012.28 1012.43 1012.54 1012.85 1013.48 1013.82 1013.81 1013.77 1013.72 1013.59 1013.48 1014.07 1014.08 1014.10 1013.81 1013.42 1013.18 1012.83 1012.45 1012.03 1011.91 1011.84 1011.61 1011.39 1011.49 1011.34 1011.17 1011.05 1011.09
Wind_Speed
10 10 11 11 11 10 9 9 8 7 5 5 4 3 4 3 2 2 4 5 5 5 3 1 1 1 0 2 2 3 4 1 3 3 1 3 3 3 2 2 3 4 5
12 12 13 13 14 14 13 11 11 10 7 5 3 1 3 2 1 3 4 5 6 6 4 2 0 1 0 2 2 3 3 1 3 3 1 1 4 4 5 5 3 3 3
16 14 14 16 14 14 15 14 13 12 10 8 4 2 2 2 4 4 4 6 7 7 5 4 3 1 2 3 3 2 3 3 1 3 3 1 3 1 2 3 2 2 3
16 15 16 16 17 15 13 14 13 13 11 11 8 8 6 5 4 4 2 4 6 6 6 6 5 3 2 3 3 2 3 2 3 2 2 3 3 2 1 3 3 2 3
18 18 18 18 17 14 14 14 13 13 12 12 11 9 8 4 3 3 4 5 6 6 6 7 6 5 4 3 3 4 2 2 2 2 1 1 0 1 2 2 2 2 1
19 17 16 14 11 14 14 13 14 14 13 12 13 12 11 8 5 5 5 5 5 4 5 7 6 5 5 4 3 3 4 4 3 3 1 1 2 1 1 1 1 3 1
17 16 17 17 15 16 16 14 14 15 15 15 14 13 13 11 9 7 6 6 6 6 7 7 7 7 6 5 4 3 4 4 3 3 2 1 2 2 1 2 2 2 1
17 17 19 18 18 18 17 16 15 15 15 14 14 13 12 9 9 9 6 5 6 6 5 8 8 8 7 6 4 4 4 5 5 4 4 3 3 3 2 3 2 3 3
17 18 18 17 16 16 17 17 15 13 14 15 12 12 12 12 10 11 8 7 6 4 4 6 8 9 8 7 6 5 6 6 5 4 5 5 3 3 4 3 4 3 4
14 14 14 15 14 15 15 15 15 16 15 13 13 11 12 13 12 10 10 9 7 6 6 7 9 9 8 8 8 6 6 5 4 3 5 5 4 4 4 4 3 4 3
14 13 12 11 12 12 13 14 13 11 12 13 12 12 11 12 12 11 11 11 10 9 9 8 8 9 9 9 9 9 7 7 7 6 6 6 5 5 4 3 4 4 5
10 11 11 11 12 13 13 14 12 13 13 11 12 13 12 11 12 13 14 12 12 11 10 8 7 8 8 7 9 10 9 9 9 8 7 7 5 7 5 5 5 5 4
11 9 9 11 11 11 12 12 12 12 11 10 10 10 10 10 12 12 12 12 12 11 11 10 9 9 9 8 8 8 8 8 8 8 8 9 6 7 7 6 5 5 5
11 10 8 8 9 9 10 10 10 8 9 10 10 10 10 9 9 10 10 10 9 11 11 11 11 10 9 8 8 8 9 8 8 9 9 9 8 8 7 6 8 7 5
12 11 10 9 9 9 9 9 8 8 8 8 9 9 7 6 6 7 8 9 9 10 11 11 11 11 10 8 9 9 9 8 9 9 9 10 9 7 8 6 7 7 7
12 11 10 11 10 11 10 10 9 9 9 8 8 7 6 6 7 6 6 8 9 10 11 12 10 11 10 10 12 11 9 9 9 10 11 10 8 10 11 12 12 9 8
14 14 13 11 10 10 10 10 9 8 9 9 9 8 7 7 6 7 6 8 10 10 11 11 10 11 11 9 12 13 10 10 10 10 10 10 9 10 11 10 8 9 11
14 13 11 10 9 8 9 9 8 8 8 8 8 7 7 8 8 9 8 6 9 9 10 10 10 10 10 10 12 12 11 10 12 12 12 12 11 11 10 10 10 11 9
14 11 11 11 10 10 9 10 9 9 8 8 8 7 7 6 5 6 7 8 8 9 9 8 10 11 12 11 12 9 10 11 12 12 13 13 12 12 12 12 12 13 12
11 15 14 11 12 11 12 11 10 9 8 7 6 6 5 4 4 3 2 2 5 9 8 9 11 11 11 9 10 10 8 10 9 11 12 11 14 10 11 12 12 13 12
14 13 17 13 12 12 12 12 10 8 6 7 7 7 5 5 3 2 0 1 2 3 5 8 8 8 6 2 2 5 5 5 7 7 7 7 10 11 10 13 11 13 12
19 17 16 14 12 12 11 11 9 8 7 8 8 7 5 3 3 2 1 2 2 2 3 2 1 2 4 6 4 5 5 6 6 7 7 6 3 4 7 8 13 13 6
16 17 16 16 13 12 10 11 9 8 8 7 6 6 6 4 3 2 1 1 2 1 2 1 2 3 3 3 5 5 6 5 3 5 6 8 10 11 8 11 12 9 6
15 16 17 17 14 11 10 10 10 8 8 7 6 5 4 4 4 4 3 2 1 0 1 2 2 2 3 4 5 5 5 5 5 5 5 5 7 8 6 3 5 5 6
12 13 14 13 13 10 8 9 9 8 6 6 5 4 3 3 4 4 4 3 3 3 3 3 3 4 4 2 4 3 3 2 4 5 3 3 3 2 2 2 4 4 3
12 14 13 13 11 10 9 9 7 7 7 6 5 3 3 2 2 3 5 7 5 4 4 3 4 4 3 3 2 3 3 4 5 4 4 4 4 4 4 3 2 3 5
Wind_Direction
212 203 202 205 184 189 195 200 191 196 182 186 193 187 206 213 225 205 168 171 159 158 141 159 274 182 48 37 356 342 336 355 347 306 190 120 83 82 103 121 117 148 181
207 202 197 202 195 191 199 195 202 189 202 203 188 225 179 180 205 204 202 204 168 171 173 200 291 76 52 349 334 359 332 359 351 320 296 30 137 90 72 89 104 124 164
212 203 199 202 200 198 198 201 201 202 193 205 210 181 168 173 185 198 202 192 179 182 192 205 258 295 313 324 326 345 331 349 347 330 341 228 43 345 102 120 118 175 195
214 206 201 205 203 206 201 203 205 201 204 188 204 210 219 213 203 184 187 191 192 192 197 197 203 202 262 290 303 300 320 290 309 258 103 15 341 27 58 129 118 206 230
207 205 204 204 207 201 202 202 202 201 206 194 200 205 219 231 201 190 176 191 185 200 197 205 201 194 215 225 262 284 277 262 283 298 186 166 91 67 330 335 103 153 120
207 207 203 195 200 199 200 199 197 205 199 202 200 203 206 218 220 200 192 190 194 208 215 216 207 216 212 220 241 258 238 244 240 262 276 342 324 45 280 280 302 331 166
200 199 198 197 198 199 204 203 201 209 202 201 202 206 212 207 222 224 212 196 198 210 220 224 218 217 212 217 225 227 235 247 240 251 283 220 258 267 318 291 345 319 352
197 197 197 198 199 199 199 200 199 211 202 205 209 201 208 212 215 224 234 234 222 219 205 214 224 224 216 215 220 228 238 244 247 236 249 247 242 229 234 290 309 299 273
191 196 199 201 200 201 203 203 201 211 206 205 208 209 204 213 219 225 217 228 237 227 218 216 222 224 216 208 210 236 232 233 241 243 246 237 241 232 236 220 260 231 294
196 197 199 201 202 202 203 204 203 206 210 209 207 210 208 210 218 220 222 220 221 225 248 243 233 227 222 218 212 218 225 235 237 249 247 246 246 246 231 230 222 231 221
196 199 200 205 202 196 198 202 204 208 204 207 210 214 215 214 216 224 226 224 224 218 232 234 252 248 228 215 216 222 222 218 230 225 241 252 259 264 253 240 219 204 225
202 200 197 190 194 193 192 199 199 201 210 209 209 214 219 219 223 229 227 223 228 226 217 226 236 256 254 256 228 218 227 222 233 241 242 250 258 265 260 256 258 242 222
196 193 185 194 195 195 195 200 196 203 205 209 212 213 218 225 228 232 237 230 227 228 227 223 223 239 254 249 253 258 241 230 239 251 248 249 237 258 263 254 251 254 234
184 179 183 190 190 193 192 198 193 193 192 203 212 219 221 226 240 241 239 245 237 236 225 227 230 230 237 244 246 238 239 238 241 248 251 244 235 246 258 254 244 236 234
179 181 172 179 180 179 181 184 189 187 192 196 203 214 212 207 211 222 235 237 236 240 241 228 224 230 231 225 220 238 240 244 255 247 245 242 245 247 253 260 255 240 240
185 179 173 170 176 175 173 172 179 180 181 186 193 189 188 194 202 206 225 236 235 231 235 236 229 235 233 207 199 214 239 243 246 251 255 253 234 240 226 225 242 261 236
181 178 176 169 170 174 170 174 172 171 176 187 192 190 189 198 213 220 229 235 238 236 229 233 227 235 240 213 206 202 237 244 246 246 247 249 245 228 250 218 222 233 245
184 177 167 159 151 145 142 134 141 149 165 173 182 190 202 215 223 231 234 223 238 236 234 228 221 232 239 218 220 217 236 240 243 245 247 248 251 247 243 247 244 243 233
179 176 157 152 147 146 139 136 140 144 157 155 164 177 194 203 215 233 236 234 235 232 237 238 232 222 233 214 218 210 230 237 239 239 241 241 246 246 211 242 250 251 245
179 162 152 156 151 146 146 139 137 144 145 143 135 132 141 148 157 164 190 262 240 242 236 235 231 230 240 214 221 205 234 235 237 240 244 226 244 253 204 226 244 248 246
177 170 152 160 153 158 151 139 143 145 129 129 134 127 127 124 116 124 338 283 268 280 265 243 240 242 245 198 170 219 247 258 256 251 247 243 203 234 233 223 249 248 265
173 172 157 155 154 157 156 142 144 142 141 142 140 138 131 122 119 146 194 233 259 270 263 263 257 79 85 54 41 10 297 323 279 272 283 290 31 329 263 232 238 261 270
179 163 161 149 152 161 161 144 140 150 152 160 150 136 128 113 88 70 25 265 299 262 238 120 79 102 80 72 39 356 323 304 272 277 292 302 294 279 262 245 247 242 231
178 162 156 149 148 164 164 141 146 152 157 156 154 143 133 116 81 76 51 45 12 356 74 65 77 59 35 33 7 341 327 299 282 279 284 290 277 269 276 289 236 226 224
158 154 145 141 140 149 153 141 148 151 148 145 143 139 114 86 93 71 31 62 63 340 42 68 66 82 79 23 288 280 339 326 296 278 261 286 289 308 325 272 241 210 210
145 139 126 127 134 145 154 149 154 164 152 139 145 146 157 156 121 116 114 61 65 60 62 50 66 105 106 250 318 354 338 327 3 46 28 16 13 25 2 3 42 71 104